[[{"header":{"parameterUnit":"m.s-1","parameterCategory":1,"la1":30.2991,"la2":30.254,"lo1":-89.0895,"lo2":-89.0444,"dy":0.0017,"dx":0.0017,"nx":28,"ny":28,"refTime":"2024-07-25T09:00:00:Z","depth":0,"parameterNumber":2,"parameterNumberName":"U-component_of_WINDS"},"data":[0,0,0,0,0,0,0,0,0,0,0,0,0,0,0,0,0,0,0,0,0,0,0,0,0,0,0,0,0,0,0,0,0,0,0,0,0,0,0,0,0,0,0,0,0,0,0,0,0,0,0,0,0,0,0,0,0,0,-2.1903,-2.1904,0,-2.196,-2.1961,-2.1961,-2.1893,-2.189,-2.1888,-2.1885,-2.1944,-2.1948,-2.1952,0,0,0,0,0,0,0,0,0,0,0,0,0,-2.1735,-2.1738,-2.1903,-2.1904,-2.1904,-2.196,-2.1961,-2.1961,-2.1893,-2.189,-2.1887,-2.1884,-2.1943,-2.1947,-2.1952,0,0,0,0,0,0,0,0,0,0,0,0,0,-2.1801,-2.1739,-2.1903,-2.1877,-2.1875,-2.196,-2.1961,-2.1962,-2.1894,-2.189,-2.1886,-2.1882,-2.1941,-2.1947,-2.1953,-2.2066,0,0,-2.1971,-2.1973,0,0,0,0,0,0,0,0,-2.1798,-2.1808,-2.188,-2.1879,-2.1877,-2.1915,-2.1923,-2.1997,-2.1895,-2.1887,-2.1885,-2.1881,-2.1938,-2.1943,-2.1963,-2.2068,-2.2071,-2.1971,-2.1975,-2.1977,-2.1979,0,0,0,0,0,0,0,-2.1793,-2.1805,-2.1925,-2.1881,-2.1879,-2.1862,-2.1868,-2.1936,-2.1933,-2.1887,-2.1882,-2.189,-2.1936,-2.1957,-2.1963,-2.2072,-2.1971,-2.1976,-2.198,-2.1982,-2.2272,-2.2276,0,0,0,0,0,0,-2.1791,-2.1801,-2.1924,-2.1927,-2.1827,-2.1868,-2.1874,-2.1907,-2.1932,-2.1932,-2.1893,-2.1886,-2.1949,-2.1957,-2.1965,-2.2099,-2.1977,-2.1983,-2.1986,-2.2268,-2.2273,-2.2278,0,0,0,0,0,0,-2.1788,-2.1803,-2.1921,-2.1863,-2.1877,-2.1875,-2.1912,-2.191,-2.1931,-2.1936,-2.1935,-2.1915,-2.1946,-2.1957,-2.2041,-2.21,-2.1986,-2.1991,-2.2263,-2.227,-2.2276,-2.2367,0,0,0,0,0,0,-2.1784,-2.1802,-2.1845,-2.1864,-2.188,-2.1997,-2.1916,-2.1914,-2.1941,-2.1933,-2.1957,-2.1957,-2.1944,-2.2033,-2.2047,-2.2106,-2.1996,-2.2258,-2.2266,-2.2274,-2.2359,-2.2376,-2.239,0,0,0,0,0,-2.1778,-2.1869,-2.1848,-2.1863,-2.1934,-2.2,-2.2009,-2.1992,-2.1946,-2.1989,-2.1993,-2.1957,-2.2091,-2.2042,-2.2057,-2.2119,-2.2254,-2.2264,-2.2273,-2.2352,-2.2372,-2.239,0,0,0,0,0,0,-2.1857,-2.1871,-2.1848,-2.1948,-2.1973,-2.1988,-2.2042,-2.2014,-2.2053,-2.2044,-2.2021,-2.2027,-2.2116,-2.2126,-2.2071,-2.2229,-2.2165,-2.2178,-2.222,-2.2239,-2.2255,-2.2251,-2.2,0,0,0,0,0,-2.1886,-2.1939,-2.1948,-2.2035,-2.2049,-2.2044,-2.2072,-2.2056,-2.2082,-2.2092,-2.2102,-2.2128,-2.2176,-2.2208,-2.2253,-2.236,-2.2364,-2.241,-2.2425,-2.2438,-2.245,-2.2507,-2.2527,-2.2309,-2.2308,-2.2308,0,0,-2.1947,-2.1961,-2.1996,-2.2052,-2.2069,-2.2124,-2.2053,-2.2114,-2.2155,-2.2102,-2.2181,-2.2189,-2.2217,-2.2313,-2.2356,-2.2324,-2.2511,-2.245,-2.246,-2.2465,-2.2518,-2.2539,-2.2558,-2.2315,-2.2314,-2.2313,0,0,-2.2085,-2.2102,-2.2176,-2.2195,-2.2223,-2.2218,-2.2236,-2.2256,-2.2259,-2.2339,-2.23,-2.2347,-2.2431,-2.2452,-2.2473,-2.262,-2.2588,-2.2635,-2.2717,-2.2772,-2.279,-2.2805,-2.2857,-2.2876,-2.2646,-2.2646,-2.2647,0,-2.2158,-2.2239,-2.2218,-2.2282,-2.2307,-2.2261,-2.2336,-2.2356,-2.2397,-2.2416,-2.2379,-2.2483,-2.2498,-2.2598,-2.2634,-2.2653,-2.2672,-2.2632,-2.2789,-2.2804,-2.2818,-2.2867,-2.2887,-2.2652,-2.2651,-2.2651,-2.265,0,-2.2326,-2.2382,-2.2439,-2.248,-2.2512,-2.2581,-2.2571,-2.2605,-2.2587,-2.2586,-2.2668,-2.2685,-2.2732,-2.2754,-2.2737,-2.2852,-2.2831,-2.2792,-2.2727,-2.2844,-2.289,-2.2909,-2.266,-2.2658,-2.2656,-2.2655,0,0,-2.2516,-2.2544,-2.2565,-2.2583,-2.261,-2.2653,-2.272,-2.2766,-2.2796,-2.2826,-2.2881,-2.2953,-2.2917,-2.2941,-2.2926,-2.2975,-2.3089,-2.293,-2.293,-2.2959,-2.3217,-2.3246,-2.3268,-2.3068,-2.3072,-2.3074,-2.3215,0,-2.2655,-2.2771,-2.2754,-2.2866,-2.2918,-2.2874,-2.2932,-2.2955,-2.2956,-2.3001,-2.3002,-2.3053,-2.3001,-2.3016,-2.3062,-2.3066,-2.3141,-2.3055,-2.312,-2.3122,-2.3114,-2.3292,-2.3324,-2.3455,-2.3232,-2.3235,-2.3238,0,-2.2833,-2.2869,-2.2986,-2.3004,-2.3025,-2.3078,-2.3118,-2.3161,-2.3186,-2.3183,-2.321,-2.3186,-2.3252,-2.3186,-2.3278,-2.322,-2.3245,-2.3251,-2.3255,-2.3261,-2.3187,-2.3303,-2.3497,-2.3516,-2.3266,-2.3264,-2.3261,0,-2.296,-2.3038,-2.3117,-2.3134,-2.3157,-2.3195,-2.3207,-2.3228,-2.3256,-2.3291,-2.3309,-2.3352,-2.3375,-2.3409,-2.3396,-2.3349,-2.3491,-2.3423,-2.349,-2.3491,-2.3522,-2.352,-2.3723,-2.3538,-2.3538,-2.3538,-2.3537,0,-2.3117,-2.319,-2.3175,-2.3224,-2.3305,-2.3284,-2.3364,-2.337,-2.339,-2.3439,-2.3404,-2.3451,-2.3432,-2.3478,-2.3468,-2.3545,-2.3556,-2.3556,-2.3553,-2.3559,-2.3559,-2.3576,-2.3566,-2.3543,-2.3542,-2.3541,-2.354,0,-2.3273,-2.3266,-2.335,-2.3365,-2.337,-2.3429,-2.3442,-2.3488,-2.3486,-2.3549,-2.3563,-2.356,-2.3612,-2.3603,-2.3661,-2.3654,-2.3751,-2.3736,-2.3742,-2.3739,-2.3806,-2.38,-2.4027,-2.4055,-2.3852,-2.3854,-2.3856,0,-2.3374,-2.3429,-2.345,-2.348,-2.3495,-2.3544,-2.3573,-2.3555,-2.3586,-2.3618,-2.366,-2.3709,-2.3747,-2.3833,-2.3836,-2.388,-2.3866,-2.3942,-2.3872,-2.3877,-2.3867,-2.3864,-2.3869,-2.3956,-2.3959,-2.396,-2.3962,0,-2.3554,-2.3547,-2.3589,-2.3631,-2.3666,-2.3698,-2.3726,-2.3753,-2.3737,-2.3774,-2.3827,-2.3856,-2.3915,-2.3964,-2.4005,-2.4016,-2.3987,-2.3984,-2.4002,-2.4009,-2.401,-2.4011,-2.378,-2.3979,-2.3977,-2.3976,-2.3975,-2.3974,-2.3685,-2.3732,-2.3754,-2.3802,-2.3821,-2.3849,-2.3892,-2.3896,-2.3939,-2.3985,-2.3972,-2.4032,-2.4055,-2.4106,-2.4123,-2.4169,-2.4141,-2.4167,-2.4173,-2.418,-2.4188,-2.4003,-2.4177,-2.4176,-2.4176,-2.4175,-2.4175,0,-2.3863,-2.3874,-2.3919,-2.396,-2.3998,-2.3966,-2.3995,-2.4029,-2.4083,-2.4106,-2.4144,-2.4205,-2.4252,-2.4259,-2.4303,-2.4339,-2.4327,-2.4352,-2.4349,-2.4352,-2.4211,-2.4191,-2.4361,-2.4361,-2.4361,-2.4361,-2.4361,-2.4361,-2.396,-2.4037,-2.4033,-2.412,-2.4131,-2.4189,-2.4209,-2.4233,-2.4252,-2.4321,-2.436,-2.4364,-2.4381,-2.4426,-2.4468,-2.4469,-2.4487,-2.4517,-2.4513,-2.4381,-2.4362,-2.4345,-2.4326,-2.4521,-2.4522,-2.465,-2.4651,-2.4652]},{"header":{"parameterUnit":"m.s-1","parameterCategory":1,"la1":30.2991,"la2":30.254,"lo1":-89.0895,"lo2":-89.0444,"dy":0.0017,"dx":0.0017,"nx":28,"ny":28,"refTime":"2024-07-25T09:00:00:Z","depth":0,"parameterNumber":3,"parameterNumberName":"V-component_of_WINDS"},"data":[0,0,0,0,0,0,0,0,0,0,0,0,0,0,0,0,0,0,0,0,0,0,0,0,0,0,0,0,0,0,0,0,0,0,0,0,0,0,0,0,0,0,0,0,0,0,0,0,0,0,0,0,0,0,0,0,0,0,0.1402,0.1402,0,0.1382,0.1382,0.1382,0.1361,0.136,0.136,0.136,0.1338,0.1338,0.1337,0,0,0,0,0,0,0,0,0,0,0,0,0,0.1422,0.1422,0.1402,0.1402,0.1402,0.1382,0.1382,0.1382,0.1361,0.136,0.136,0.136,0.1338,0.1338,0.1337,0,0,0,0,0,0,0,0,0,0,0,0,0,0.1409,0.1422,0.1402,0.1389,0.1388,0.1382,0.1382,0.1382,0.1361,0.136,0.136,0.136,0.1338,0.1338,0.1337,0.1343,0,0,0.1336,0.1335,0,0,0,0,0,0,0,0,0.141,0.1408,0.1391,0.139,0.1389,0.1374,0.1381,0.1369,0.1361,0.1371,0.136,0.1359,0.135,0.1349,0.1346,0.1342,0.1341,0.1336,0.1335,0.1335,0.1335,0,0,0,0,0,0,0,0.1411,0.1409,0.1394,0.1391,0.1389,0.1384,0.1382,0.1378,0.1363,0.137,0.1369,0.1367,0.1349,0.1346,0.1345,0.134,0.1336,0.1335,0.1335,0.1335,0.1341,0.1341,0,0,0,0,0,0,0.1414,0.141,0.1395,0.1394,0.1398,0.1384,0.1381,0.1379,0.1363,0.136,0.1367,0.1366,0.1347,0.1346,0.1344,0.135,0.1335,0.1335,0.1334,0.134,0.1341,0.1341,0,0,0,0,0,0,0.1414,0.1413,0.1396,0.1401,0.1399,0.1384,0.1381,0.1379,0.1376,0.1361,0.1358,0.1367,0.1347,0.1345,0.1343,0.1349,0.1334,0.1334,0.134,0.134,0.1341,0.1362,0,0,0,0,0,0,0.1415,0.1413,0.1415,0.1402,0.1399,0.1396,0.1382,0.1379,0.1375,0.1373,0.136,0.1357,0.1346,0.1344,0.1343,0.1348,0.1334,0.1339,0.134,0.1341,0.136,0.1363,0.1365,0,0,0,0,0,0.1416,0.1421,0.1415,0.1414,0.1401,0.1396,0.1394,0.1382,0.1376,0.1377,0.1368,0.1358,0.1349,0.1344,0.1343,0.1348,0.1339,0.134,0.1341,0.1359,0.1362,0.1365,0,0,0,0,0,0,0.1435,0.1419,0.1412,0.1414,0.1407,0.1393,0.1395,0.1386,0.138,0.1378,0.1363,0.136,0.1361,0.1354,0.135,0.1353,0.1342,0.1343,0.1357,0.136,0.1362,0.1364,0.1333,0,0,0,0,0,0.1439,0.1437,0.1423,0.1426,0.1423,0.1409,0.1407,0.1398,0.139,0.1387,0.1377,0.1369,0.1365,0.1362,0.1357,0.1359,0.1356,0.1362,0.1364,0.1366,0.1367,0.1369,0.1371,0.1345,0.1345,0.1345,0,0,0.1448,0.1439,0.1439,0.1429,0.1423,0.1421,0.1407,0.1405,0.1403,0.1386,0.1384,0.1377,0.1367,0.1368,0.1368,0.1363,0.1374,0.1368,0.1369,0.1369,0.137,0.1372,0.1375,0.1345,0.1345,0.1345,0,0,0.1464,0.1457,0.1458,0.1452,0.1443,0.1434,0.1435,0.1422,0.1417,0.1415,0.1403,0.14,0.1393,0.1386,0.1382,0.1396,0.1386,0.1395,0.1407,0.1409,0.1411,0.1413,0.1418,0.142,0.1396,0.1396,0.1396,0,0.1476,0.1472,0.146,0.1459,0.1456,0.1441,0.1442,0.1437,0.1426,0.1424,0.1418,0.1409,0.1401,0.1401,0.1404,0.1401,0.1401,0.1396,0.1412,0.1413,0.1415,0.142,0.1422,0.1397,0.1397,0.1397,0.1397,0,0.1488,0.1486,0.1488,0.1479,0.1476,0.1476,0.1464,0.1462,0.1454,0.1446,0.1444,0.1435,0.1428,0.1427,0.1419,0.1426,0.1423,0.1415,0.1404,0.1419,0.1423,0.1425,0.1399,0.1398,0.1398,0.1398,0,0,0.1514,0.1499,0.15,0.1496,0.1485,0.1483,0.1482,0.1476,0.1475,0.1468,0.1468,0.1462,0.1455,0.145,0.1441,0.1443,0.1455,0.1434,0.1434,0.1439,0.1462,0.1469,0.1471,0.1449,0.1449,0.1449,0.1463,0,0.1527,0.1527,0.1516,0.1518,0.1516,0.1503,0.1503,0.1496,0.1489,0.1486,0.1477,0.1474,0.1464,0.1461,0.1462,0.1453,0.146,0.1452,0.1448,0.1448,0.1451,0.1473,0.1479,0.1493,0.1465,0.1465,0.1465,0,0.1543,0.1538,0.154,0.153,0.1528,0.1529,0.1522,0.152,0.1512,0.1507,0.1502,0.1492,0.1491,0.1482,0.148,0.1476,0.1473,0.1469,0.1469,0.1468,0.1457,0.1473,0.1497,0.1499,0.1468,0.1467,0.1467,0,0.1562,0.1556,0.1556,0.1553,0.1541,0.1542,0.1536,0.1528,0.1525,0.152,0.1518,0.1512,0.1509,0.1505,0.1494,0.1488,0.1494,0.1484,0.149,0.149,0.1491,0.1491,0.1516,0.149,0.149,0.149,0.149,0,0.1578,0.158,0.1565,0.1565,0.1567,0.1555,0.1557,0.1551,0.1544,0.1542,0.153,0.1529,0.1515,0.1513,0.1504,0.1504,0.1503,0.1498,0.1496,0.1499,0.15,0.1498,0.1496,0.149,0.149,0.149,0.149,0,0.1599,0.1589,0.1589,0.1578,0.1575,0.1577,0.1568,0.1567,0.156,0.1559,0.1558,0.1545,0.1542,0.1531,0.1524,0.1519,0.1521,0.1517,0.1524,0.1523,0.153,0.1529,0.1553,0.1556,0.1529,0.1529,0.1529,0,0.161,0.1612,0.1601,0.1599,0.1595,0.1593,0.159,0.1579,0.1576,0.1568,0.1569,0.1565,0.1561,0.1556,0.1546,0.1541,0.1537,0.1545,0.1536,0.1539,0.1537,0.1537,0.1537,0.1547,0.1548,0.1548,0.1548,0,0.1631,0.1626,0.1623,0.1618,0.1616,0.1611,0.1606,0.1606,0.1593,0.1591,0.1587,0.1584,0.1578,0.1574,0.1568,0.1562,0.1553,0.1551,0.1553,0.1556,0.156,0.1558,0.153,0.1551,0.1551,0.155,0.155,0.155,0.1647,0.1648,0.1641,0.1638,0.1633,0.1629,0.1628,0.1621,0.1618,0.1613,0.1606,0.1603,0.1596,0.1587,0.1582,0.158,0.1575,0.1576,0.1577,0.1577,0.1579,0.1561,0.1579,0.1579,0.1579,0.1579,0.1578,0,0.1667,0.1662,0.166,0.1653,0.1651,0.1643,0.1637,0.1636,0.1634,0.1628,0.1625,0.1621,0.1618,0.1608,0.1603,0.1604,0.1599,0.1603,0.1602,0.1601,0.1584,0.1583,0.1606,0.1606,0.1606,0.1606,0.1606,0.1606,0.1677,0.1678,0.1673,0.1671,0.1666,0.1664,0.1661,0.1658,0.1653,0.165,0.1647,0.1641,0.1633,0.1628,0.1625,0.1622,0.1621,0.1626,0.1622,0.1605,0.1603,0.16,0.1599,0.1625,0.1625,0.1639,0.1639,0.1639]}]]